Tracking 30107 objects as of 25-Jan-2025
HD Live streaming from Space Station
objects crossing your sky now

OPS 9316 (IDSCS 6)

Track OPS 9316 (IDSCS 6) now!
OPS 9316 (IDSCS 6) is classified as:


NORAD ID: 2220
Int'l Code: 1966-053G
Perigee: 33,704.5 km
Apogee: 34,230.9 km
Inclination: 7.5 °
Period: 1,343.8 minutes
Semi major axis: 40338 km
RCS: 0.0794 m2 (small)
Launch date: June 16, 1966
Source: United States (US)
Launch site: AIR FORCE EASTERN TEST RANGE (AFETR)
Your satellite tracking list
Your tracking list is empty




NASA's NSSDC Master Catalog

Two Line Element Set (TLE):
1 02220U 66053G   25025.22692413 -.00000098  00000-0  00000-0 0  9997
2 02220   7.4893  50.7051 0065243 169.3468 214.9475  1.07156908133617
Source of the keplerian elements: AFSPC